SCOUT X-4 R/B, 907

Orbit data source: Space-Track

SCOUT X-4 R/B, 907 is space debris in LEO originally from a launch on Sat, 10 Oct 1964 UTC launched from the Air Force Western Test Range (AFWTR). Debris objects in space refer to the collection of defunct objects orbiting the Earth. Examples of debris include non-operational satellites, rocket bodies, and fragments generated from explosions, collisions, or faulty payload assembly.

Loading next visibility...
SCOUT X-4 R/B details
Identifier
907, 1964-064B
Orbit
LEO
Last TLE update20 hours ago
Origin
Flag of USNASA LaRC (US)
ManufacturerABL
MissionSpacecraft
Bus & MotorALTAIR, Unknown motor
Mass33 kg wet, 33 kg dry
Launch date (UTC)
1964-10-10 (60 years ago)
Launch vehicleUnknown
Launch site
Air Force Western Test Range (AFWTR)
Object type
Payload
Rocket body
Debris
Shape & HBRCyl, 1.5 m
Radar Cross Section0.687 m², Medium (>0.1 m² and < 1m²)

Expand to show TLE details & history

TLE from 20 hours ago
0 SCOUT X-4 R/B
1 00907U 64064B   24355.85491702  .00000252  00000-0  22181-3 0  9997
2 00907  79.6922  41.7105 0120209 253.2977 105.4951 13.80760409 27653
Epoch: 2024-12-20T20:31Z
Definitive object data (Epoch: 2024-12-20T20:31:04.83Z)
Latitude-0.00001°
Longitude4.02593°
Altitude988.551 km
Speed7.345 km/s
True Right ascension02h 46m 50s
True Declination0° 00' 00"
Sunlit
Object was in full shadow at TLE epoch
Visualization TLE readout
Latitude78.66581°
Longitude118.62116°
Altitude1,054.985 km
Speed7.291 km/s
Apparent Right ascension04h 18m 51s
Apparent Declination34° 35' 23"
Sunlit
Object is in daylight
Visualization observer readout
Local Sidereal Time15:09:16
Azimuth345.322° N
Elevation-13.785°
Doppler factor1
Orbital elements
Apogee altitude1,046.676 km
Perigee altitude870.291 km
Semi-major axis7,336.62 km
Eccentricity0.0120209
Inclination79.6922°
RAAN41.7105°
Arg. of periapsis253.2977°
True anomaly106.8171°
Mean anomaly105.4951°
Eccentric anomaly106.15664°
Mean motion3.45382 °/min
BSTAR0.00022181
Orbital period104.23 mins
Loading maneuver chart data...
Loading historical data...
Loading historical data...
Loading historical data...
Loading historical data...
Loading historical data...
Loading historical data...
Loading historical data...
Other satellites on launch #64 in the year 1964 (1964-10-10 UTC)

SCOUT X-4 R/B Visibility forecast

Observer location: undefined°, undefined

Span
Click to sort rows by Start time (UTC) header in descending order
Start Az.
Max El. time (UTC)
Max El. Az.
Max El.
End time (UTC)
End Az.
9 mins2024-12-21 16:15:52.464Z318.54° NNW2024-12-21 16:19:52.464Z277.164° WNW21.359°2024-12-21 16:24:52.464Z223.13° SW
11 mins2024-12-22 03:55:52.464Z181.621° SSW2024-12-22 04:00:52.464Z121.708° SE43.993°2024-12-22 04:06:52.464Z15.268° NNE
6 mins2024-12-22 05:44:52.464Z270.788° WNW2024-12-22 05:47:52.464Z303.042° NW17.122°2024-12-22 05:50:52.464Z332.517° NNW
5 mins2024-12-22 13:07:52.464Z39.619° NE2024-12-22 13:09:52.464Z59.324° ENE13.355°2024-12-22 13:12:52.464Z88.234° E
10 mins2024-12-22 14:51:52.464Z349.737° N2024-12-22 14:56:52.464Z158.207° S44.421°2024-12-22 15:01:52.464Z169.275° S
|